Oakland, CA

1:45 PM PST on December 18, 2017 (GMT -0800)
Metro Oakland International

Weather History for KOAK - January, 2014

Change the Weather History Date:

Friday, January 24, 2014

  Actual Average Record
Temperature  
Mean Temperature 52 °F 50 °F  
Max Temperature 63 °F 58 °F 69 °F (2015)
Min Temperature 41 °F 42 °F 33 °F (2002)
Degree Days  
Heating Degree Days 13 15  
Month to date heating degree days 321 384  
Since 1 July heating degree days 1444 1556  
Cooling Degree Days 0 0  
Month to date cooling degree days 0 0  
Year to date cooling degree days 0 0  
Growing Degree Days 1 (Base 50)    
Moisture  
Dew Point 40 °F    
Average Humidity 68    
Maximum Humidity 93    
Minimum Humidity 42    
Precipitation  
Precipitation 0.00 in 0.07 in 1.00 in (1967)
Month to date precipitation 0.01 3.42  
Year to date precipitation 0.01 3.42  
Since 1 July precipitation 2.08  
Sea Level Pressure  
Sea Level Pressure 30.16 in    
Wind  
Wind Speed 2 mph (SSE)    
Max Wind Speed 7 mph    
Max Gust Speed 8 mph    
Visibility 6 miles    
Events Fog    
T = Trace of Precipitation, MM = Missing Value Source: NWS Daily Summary

Daily Weather History Graph

Daily Weather History Graph

Search for Another Location

Airport or City:

Trip Planner

Search our weather history database for the weather conditions in past years. The results will help you decide how hot, cold, wet, or windy it might be!

Date:

Astronomy

Jan. 24, 2014 Rise Set
Actual Time 7:18 AM PST 5:23 PM PST
Civil Twilight 6:50 AM PST 5:51 PM PST
Nautical Twilight 6:18 AM PST 6:23 PM PST
Astronomical Twilight 5:47 AM PST 6:54 PM PST
Moon 12:53 AM PST (1/24) 11:45 AM PST (1/24)
Length of Visible Light 11h 01m
Length of Day
10h 05m
Last Quarter, 43% of the Moon is Illuminated
Jan 24
Last Quarter
Jan 30
New
Feb 6
First Quarter
Feb 14
Full
Feb 22
Last Quarter

Hourly Weather History & Observations

Time (PST) Temp. Windchill Dew Point Humidity Pressure Visibility Wind Dir Wind Speed Gust Speed Precip Events Conditions
12:53 AM 46.9 °F - 44.1 °F 90% 30.03 in 7.0 mi NNE 3.5 mph - N/A Fog Shallow Fog
1:53 AM 46.0 °F - 43.0 °F 89% 30.04 in 7.0 mi Calm Calm - N/A Fog Shallow Fog
2:53 AM 46.0 °F - 43.0 °F 89% 30.05 in 7.0 mi Calm Calm - N/A Fog Shallow Fog
3:53 AM 44.1 °F 42.5 °F 39.0 °F 82% 30.07 in 7.0 mi East 3.5 mph - N/A Fog Shallow Fog
4:53 AM 42.1 °F 39.2 °F 36.0 °F 79% 30.08 in 7.0 mi ENE 4.6 mph - N/A   Clear
5:53 AM 41.0 °F - 34.0 °F 76% 30.08 in 6.0 mi Calm Calm - N/A   Haze
6:53 AM 45.0 °F 41.8 °F 39.0 °F 80% 30.11 in 6.0 mi SSE 5.8 mph - N/A   Haze
7:53 AM 42.1 °F - 34.0 °F 73% 30.12 in 3.0 mi Calm Calm - N/A   Haze
8:53 AM 43.0 °F - 35.1 °F 74% 30.14 in 4.0 mi Calm Calm - N/A   Haze
9:53 AM 51.1 °F - 41.0 °F 68% 30.17 in 4.0 mi SE 3.5 mph - N/A   Haze
10:53 AM 54.0 °F - 44.1 °F 69% 30.19 in 5.0 mi South 3.5 mph - N/A   Haze
11:53 AM 57.0 °F - 43.0 °F 59% 30.19 in 6.0 mi SSW 5.8 mph - N/A   Haze
12:53 PM 60.1 °F - 41.0 °F 49% 30.18 in 7.0 mi Calm Calm - N/A   Mostly Cloudy
1:53 PM 60.1 °F - 42.1 °F 51% 30.17 in 7.0 mi SW 3.5 mph - N/A   Scattered Clouds
2:53 PM 61.0 °F - 37.9 °F 42% 30.17 in 7.0 mi Calm Calm - N/A   Scattered Clouds
3:53 PM 57.9 °F - 46.0 °F 65% 30.18 in 6.0 mi West 3.5 mph - N/A   Haze
4:53 PM 57.0 °F - 45.0 °F 64% 30.19 in 6.0 mi WSW 3.5 mph - N/A   Haze
5:53 PM 55.0 °F - 41.0 °F 59% 30.20 in 8.0 mi WNW 3.5 mph - N/A   Mostly Cloudy
6:53 PM 51.1 °F - 37.0 °F 59% 30.23 in 8.0 mi ENE 4.6 mph - N/A   Scattered Clouds
7:53 PM 48.0 °F - 37.9 °F 68% 30.24 in 8.0 mi NNE 3.5 mph - N/A   Partly Cloudy
8:53 PM 51.1 °F - 39.9 °F 66% 30.25 in 7.0 mi Calm Calm - N/A   Partly Cloudy
9:53 PM 50.0 °F - 39.9 °F 68% 30.26 in 7.0 mi Calm Calm - N/A   Partly Cloudy
10:53 PM 45.0 °F - 39.0 °F 80% 30.27 in 6.0 mi Calm Calm - N/A   Haze
11:53 PM 46.0 °F - 39.0 °F 76% 30.28 in 8.0 mi Calm Calm - N/A   Clear